AV194 Weather Reports


Display with metric or nautical units.
time (UTC)temp
F
wind
direction
speed
MPH
gust
MPH
rain 1hr
in
rain 24hr
in
rain mn
in
humidity
%
barometer
mb
20260905043602 65 355 0.0 0.0 0.00 0.00 0.00 84 1008.2
20260905043106 65 355 0.0 0.0 0.00 0.00 0.00 84 1008.1
20260905042603 65 355 0.0 0.0 0.00 0.00 0.00 84 1008.1
20260905042058 65 355 0.0 0.0 0.00 0.00 0.00 84 1008.1
20260905041601 65 355 0.0 1.0 0.00 0.00 0.00 83 1008.3
20260905041058 65 355 0.0 1.0 0.00 0.00 0.00 83 1008.2
20260905040556 65 355 0.0 1.0 0.00 0.00 0.00 83 1008.3
20260905040056 65 355 0.0 0.0 0.00 0.00 0.00 82 1008.2
20260905035555 66 355 0.0 1.0 0.00 0.00 0.00 82 1008.2
20260905035056 66 355 0.0 1.0 0.00 0.00 0.00 82 1008.1
20260905034603 66 355 0.0 1.0 0.00 0.00 0.00 81 1008.1
20260905034055 66 35 0.0 0.0 0.00 0.00 0.00 81 1008.1
20260905033554 67 35 0.0 0.0 0.00 0.00 0.00 80 1008.1
20260905033054 67 35 0.0 0.0 0.00 0.00 0.00 80 1008.1
20260905032554 67 35 0.0 1.0 0.00 0.00 0.00 79 1008.1
20260905032053 67 35 0.0 1.0 0.00 0.00 0.00 79 1008.1
20260905031556 67 35 0.0 1.0 0.00 0.00 0.00 79 1008.1
20260905031053 68 35 0.0 0.0 0.00 0.00 0.00 80 1008.2
20260905030553 68 35 0.0 1.0 0.00 0.00 0.00 79 1008.2
20260905030110 68 35 0.0 1.0 0.00 0.00 0.00 79 1008.3
20260905025554 68 35 0.0 1.0 0.00 0.00 0.00 79 1008.2
20260905025056 68 35 0.0 1.0 0.00 0.00 0.00 80 1008.3
20260905024553 68 35 0.0 1.0 0.00 0.00 0.00 80 1008.3
20260905024052 68 35 0.0 1.0 0.00 0.00 0.00 80 1008.3
20260905023555 68 35 0.0 1.0 0.00 0.00 0.00 79 1008.3
20260905023052 68 35 0.0 1.0 0.00 0.00 0.00 79 1008.4
20260905022551 68 35 0.0 1.0 0.00 0.00 0.00 78 1008.3
20260905022052 68 13 0.0 1.0 0.00 0.00 0.00 78 1008.4
20260905021552 69 13 0.0 1.0 0.00 0.00 0.00 78 1008.3
20260905021052 68 13 0.0 1.0 0.00 0.00 0.00 77 1008.4
20260905020551 68 13 0.0 1.0 0.00 0.00 0.00 78 1008.5
20260905020052 68 13 0.0 1.0 0.00 0.00 0.00 78 1008.6
20260905015551 68 61 0.0 2.0 0.00 0.00 0.00 79 1008.5
20260905015053 68 61 0.0 2.0 0.00 0.00 0.00 79 1008.7
20260905014556 68 81 0.0 2.0 0.00 0.00 0.00 79 1008.6
20260905014050 68 55 0.0 1.0 0.00 0.00 0.00 79 1008.7
20260905013553 68 55 0.0 1.0 0.00 0.00 0.00 77 1008.7
20260905013053 68 55 0.0 1.0 0.00 0.00 0.00 76 1008.7
20260905012552 69 55 0.0 2.0 0.00 0.00 0.00 76 1008.8
20260905012054 69 55 0.0 2.0 0.00 0.00 0.00 76 1008.7
20260905011551 69 265 0.0 0.0 0.00 0.00 0.00 76 1008.7
20260905011050 69 265 0.0 0.0 0.00 0.00 0.00 75 1008.6
20260905010554 69 265 0.0 1.0 0.00 0.00 0.00 75 1008.5
20260905010049 69 265 0.0 1.0 0.00 0.00 0.00 75 1008.6
20260905005550 69 265 0.0 0.0 0.00 0.00 0.00 75 1008.7
20260905005051 69 265 0.0 0.0 0.00 0.00 0.00 73 1008.6
20260905004549 69 265 0.0 1.0 0.00 0.00 0.00 74 1008.5
20260905004048 70 265 0.0 1.0 0.00 0.00 0.00 74 1008.4
20260905003549 70 265 0.0 1.0 0.00 0.00 0.00 74 1008.5
20260905003049 70 265 0.0 1.0 0.00 0.00 0.00 73 1008.5
20260905002547 70 284 0.0 1.0 0.00 0.00 0.00 73 1008.6
20260905002050 70 284 0.0 2.0 0.00 0.00 0.00 71 1008.4
20260905001548 70 285 0.0 2.0 0.00 0.00 0.00 71 1008.4
20260905001047 70 286 0.0 2.0 0.00 0.00 0.00 71 1008.4
20260905000548 71 284 0.0 1.0 0.00 0.00 0.00 71 1008.4
20260905000048 71 255 0.0 1.0 0.00 0.00 0.00 72 1008.4
20260904235548 71 123 0.0 1.0 0.00 0.00 0.00 73 1008.5
20260904235047 71 351 0.0 1.0 0.00 0.00 0.00 73 1008.4
20260904234548 71 355 0.0 1.0 0.00 0.00 0.00 72 1008.4
20260904234049 71 298 0.0 1.0 0.00 0.00 0.00 71 1008.2
20260904233546 71 298 0.0 1.0 0.00 0.00 0.00 72 1008.1
20260904233048 72 298 0.0 1.0 0.00 0.00 0.00 71 1008.0
20260904232546 72 346 0.0 2.0 0.00 0.00 0.00 71 1008.0
20260904232045 72 346 0.0 2.0 0.00 0.00 0.00 70 1008.1
20260904231546 72 42 0.0 1.0 0.00 0.00 0.00 73 1008.0
20260904231046 72 80 0.0 1.0 0.00 0.00 0.00 72 1007.9
20260904230546 72 56 0.0 2.0 0.00 0.00 0.00 71 1007.9
20260904230046 73 349 0.0 2.0 0.00 0.00 0.00 72 1007.9
20260904225547 73 136 0.0 0.0 0.00 0.00 0.00 71 1007.9
20260904225044 73 136 0.0 1.0 0.00 0.00 0.00 70 1007.9
20260904224545 74 136 0.0 1.0 0.00 0.00 0.00 71 1007.8
20260904224044 74 136 0.0 1.0 0.00 0.00 0.00 71 1007.7
20260904223544 74 146 0.0 2.0 0.00 0.00 0.00 70 1007.7
20260904223050 74 140 0.0 1.0 0.00 0.00 0.00 69 1007.7
20260904222543 75 351 0.0 1.0 0.00 0.00 0.00 69 1007.6
20260904222043 75 351 0.0 1.0 0.00 0.00 0.00 68 1007.7
20260904221550 75 351 0.0 5.0 0.00 0.00 0.00 67 1007.7
20260904221045 75 302 2.0 5.0 0.00 0.00 0.00 65 1007.6
20260904220543 75 60 0.0 2.0 0.00 0.00 0.00 67 1007.6
20260904220059 76 132 0.0 4.0 0.00 0.00 0.00 66 1007.6
20260904215542 76 160 0.0 4.0 0.00 0.00 0.00 65 1007.6
20260904215046 76 238 0.0 2.0 0.00 0.00 0.00 68 1007.6
20260904214543 77 224 0.0 2.0 0.00 0.00 0.00 68 1007.5
20260904214042 77 179 0.0 4.0 0.00 0.00 0.00 67 1007.5
20260904213542 77 57 0.0 4.0 0.00 0.00 0.00 67 1007.4
20260904213042 76 151 0.0 2.0 0.00 0.00 0.00 68 1007.5
20260904212542 76 296 0.0 2.0 0.00 0.00 0.00 68 1007.5
20260904212043 76 279 0.0 4.0 0.00 0.00 0.00 69 1007.4
20260904211550 76 137 0.0 5.0 0.00 0.00 0.00 69 1007.5
20260904211041 76 280 0.0 7.0 0.00 0.00 0.00 66 1007.6
20260904210541 76 290 1.0 2.0 0.00 0.00 0.00 68 1007.6
20260904210046 76 74 0.0 4.0 0.00 0.00 0.00 68 1007.5
20260904205541 76 80 2.0 4.0 0.00 0.00 0.00 68 1007.5
20260904205042 76 168 0.0 1.0 0.00 0.00 0.00 66 1007.5
20260904204539 76 126 0.0 1.0 0.00 0.00 0.00 64 1007.4
20260904204039 77 116 0.0 2.0 0.00 0.00 0.00 65 1007.5
20260904203539 77 232 0.0 8.0 0.00 0.00 0.00 63 1007.5
20260904203039 77 80 0.0 8.0 0.00 0.00 0.00 63 1007.5
20260904202539 77 76 2.0 7.0 0.00 0.00 0.00 63 1007.5
20260904202038 77 140 0.0 4.0 0.00 0.00 0.00 63 1007.5
20260904201539 78 239 1.0 7.0 0.00 0.00 0.00 65 1007.6
20260904201038 78 36 2.0 7.0 0.00 0.00 0.00 65 1007.6
20260904200538 78 5 2.0 5.0 0.00 0.00 0.00 62 1007.6
20260904200045 78 81 1.0 5.0 0.00 0.00 0.00 63 1007.7
20260904195539 78 22 1.0 4.0 0.00 0.00 0.00 62 1007.6
20260904195038 78 52 0.0 4.0 0.00 0.00 0.00 62 1007.7
20260904194620 79 328 1.0 5.0 0.00 0.00 0.00 60 1007.7
20260904194037 79 64 0.0 5.0 0.00 0.00 0.00 59 1007.7
20260904193537 79 68 2.0 7.0 0.00 0.00 0.00 58 1007.6
20260904193041 79 112 1.0 7.0 0.00 0.00 0.00 59 1007.6
20260904192536 79 272 1.0 8.0 0.00 0.00 0.00 58 1007.6
20260904192036 79 331 2.0 11.0 0.00 0.00 0.00 59 1007.5
20260904191536 80 288 2.0 11.0 0.00 0.00 0.00 55 1007.6
20260904191038 81 360 1.0 9.0 0.00 0.00 0.00 54 1007.5
20260904190536 81 27 2.0 7.0 0.00 0.00 0.00 52 1007.5
20260904190036 81 44 1.0 8.0 0.00 0.00 0.00 51 1007.3
20260904185535 81 277 1.0 8.0 0.00 0.00 0.00 51 1007.5
20260904185035 81 324 2.0 6.0 0.00 0.00 0.00 53 1007.5
20260904184534 81 360 2.0 6.0 0.00 0.00 0.00 54 1007.5
20260904184034 81 18 2.0 7.0 0.00 0.00 0.00 54 1007.6
20260904183533 81 349 1.0 8.0 0.00 0.00 0.00 51 1007.7
20260904183032 81 134 1.0 8.0 0.00 0.00 0.00 53 1007.7
20260904182536 82 217 1.0 7.0 0.00 0.00 0.00 55 1007.6
20260904182031 82 295 2.0 9.0 0.00 0.00 0.00 48 1007.8
20260904181531 82 134 1.0 9.0 0.00 0.00 0.00 51 1007.8
20260904181030 83 128 3.0 8.0 0.00 0.00 0.00 56 1007.8
20260904180532 83 355 2.0 8.0 0.00 0.00 0.00 55 1007.7
20260904180030 83 198 2.0 8.0 0.00 0.00 0.00 51 1007.8
20260904175530 83 146 2.0 8.0 0.00 0.00 0.00 52 1007.8
20260904175028 82 5 1.0 5.0 0.00 0.00 0.00 56 1007.7
20260904174527 81 324 1.0 6.0 0.00 0.00 0.00 54 1007.8
20260904174027 81 336 2.0 7.0 0.00 0.00 0.00 56 1007.9
20260904173526 81 48 2.0 11.0 0.00 0.00 0.00 60 1007.8
20260904173035 81 342 2.0 11.0 0.00 0.00 0.00 55 1007.9
20260904172526 81 198 1.0 7.0 0.00 0.00 0.00 63 1007.8
20260904172026 80 121 1.0 7.0 0.00 0.00 0.00 60 1007.9
20260904171537 81 213 1.0 7.0 0.00 0.00 0.00 58 1007.9
20260904171025 81 19 1.0 7.0 0.00 0.00 0.00 57 1007.9
20260904170527 81 71 1.0 6.0 0.00 0.00 0.00 57 1008.1
20260904170025 82 44 3.0 8.0 0.00 0.00 0.00 58 1008.1
20260904165524 82 5 1.0 10.0 0.00 0.00 0.00 58 1008.2
20260904165022 81 105 4.0 8.0 0.00 0.00 0.00 60 1008.3
20260904164527 81 15 1.0 7.0 0.00 0.00 0.00 56 1008.2
20260904164027 82 126 2.0 5.0 0.00 0.00 0.00 60 1008.2
20260904163522 82 64 2.0 6.0 0.00 0.00 0.00 55 1008.2
20260904163021 82 120 3.0 11.0 0.00 0.00 0.00 61 1008.2
20260904162521 82 5 4.0 11.0 0.00 0.00 0.00 61 1008.2
20260904162024 81 182 2.0 11.0 0.00 0.00 0.00 58 1008.1
20260904161521 82 66 2.0 9.0 0.00 0.00 0.00 60 1008.3
20260904161018 81 69 4.0 9.0 0.00 0.00 0.00 63 1008.2
20260904160518 81 337 2.0 9.0 0.00 0.00 0.00 57 1008.3
20260904160018 80 355 4.0 9.0 0.00 0.00 0.00 63 1008.4
20260904155515 79 227 0.0 7.0 0.00 0.00 0.00 63 1008.5
20260904155014 80 93 2.0 9.0 0.00 0.00 0.00 62 1008.7
20260904154513 80 127 2.0 5.0 0.00 0.00 0.00 63 1008.7
20260904154012 80 34 1.0 5.0 0.00 0.00 0.00 66 1008.7
20260904153511 79 215 1.0 8.0 0.00 0.00 0.00 68 1008.6
20260904153020 79 348 4.0 8.0 0.00 0.00 0.00 69 1008.6
20260904152508 79 17 1.0 8.0 0.00 0.00 0.00 69 1008.8
20260904152007 79 49 4.0 8.0 0.00 0.00 0.00 70 1008.8
20260904151506 78 325 2.0 9.0 0.00 0.00 0.00 69 1008.8
20260904151005 78 107 4.0 9.0 0.00 0.00 0.00 72 1008.8
20260904150503 78 19 3.0 7.0 0.00 0.00 0.00 72 1008.8
20260904150002 77 67 1.0 6.0 0.00 0.00 0.00 71 1008.9
20260904145501 77 59 1.0 3.0 0.00 0.00 0.00 70 1008.8
20260904145100 77 5 2.0 8.0 0.00 0.00 0.00 71 1008.8
20260904144558 77 151 4.0 8.0 0.00 0.00 0.00 74 1008.9
20260904144100 76 327 2.0 6.0 0.00 0.00 0.00 76 1008.9
20260904143558 76 57 2.0 6.0 0.00 0.00 0.00 75 1008.9
20260904143055 75 106 0.0 6.0 0.00 0.00 0.00 75 1009.0
20260904142555 75 38 1.0 7.0 0.00 0.00 0.00 77 1009.1
20260904142051 74 43 1.0 7.0 0.00 0.00 0.00 80 1009.1
20260904141616 74 5 2.0 7.0 0.00 0.00 0.00 81 1009.1
20260904141049 74 199 1.0 4.0 0.00 0.00 0.00 84 1009.1
20260904140547 73 121 1.0 4.0 0.00 0.00 0.00 85 1009.2
20260904140100 73 179 0.0 5.0 0.00 0.00 0.00 87 1009.3
20260904135545 72 84 1.0 5.0 0.00 0.00 0.00 88 1009.3
20260904135045 72 207 0.0 2.0 0.00 0.00 0.00 89 1009.3
20260904134546 71 194 0.0 2.0 0.00 0.00 0.00 90 1009.3
20260904134040 70 92 0.0 5.0 0.00 0.00 0.00 91 1009.3
20260904133539 70 153 0.0 5.0 0.00 0.00 0.00 93 1009.3
20260904133048 69 72 0.0 4.0 0.00 0.00 0.00 94 1009.3
20260904132536 69 131 0.0 4.0 0.00 0.00 0.00 95 1009.3
20260904132034 69 124 0.0 2.0 0.00 0.00 0.00 96 1009.4
20260904131533 68 109 0.0 4.0 0.00 0.00 0.00 97 1009.4
20260904131034 68 91 0.0 4.0 0.00 0.00 0.00 97 1009.4
20260904130531 67 113 0.0 4.0 0.00 0.00 0.00 97 1009.4
20260904130030 67 59 0.0 4.0 0.00 0.00 0.00 98 1009.4
20260904125530 66 74 0.0 3.0 0.00 0.00 0.00 98 1009.4
20260904125032 66 150 0.0 0.0 0.00 0.00 0.00 97 1009.4
20260904124528 66 125 0.0 0.0 0.00 0.00 0.00 98 1009.4
20260904124029 66 125 0.0 4.0 0.00 0.00 0.00 98 1009.4
20260904123529 66 125 0.0 4.0 0.00 0.00 0.00 98 1009.4
20260904123026 65 69 0.0 2.0 0.00 0.00 0.00 97 1009.3
20260904122526 65 88 0.0 1.0 0.00 0.00 0.00 97 1009.4
20260904122026 65 158 0.0 2.0 0.00 0.00 0.00 97 1009.4
20260904121534 65 96 0.0 2.0 0.00 0.00 0.00 97 1009.4
20260904121026 65 100 0.0 5.0 0.00 0.00 0.00 97 1009.3
20260904120526 65 85 0.0 5.0 0.00 0.00 0.00 97 1009.3
20260904120024 65 349 0.0 3.0 0.00 0.00 0.00 97 1009.2
20260904115524 64 9 0.0 0.0 0.00 0.00 0.00 97 1009.3
20260904115023 64 88 0.0 2.0 0.00 0.00 0.00 97 1009.4
20260904114522 65 93 0.0 2.0 0.00 0.00 0.00 97 1009.3
20260904114023 65 65 0.0 0.0 0.00 0.00 0.00 97 1009.4
20260904113521 65 56 0.0 0.0 0.00 0.00 0.00 97 1009.3
20260904113032 64 56 0.0 0.0 0.00 0.00 0.00 97 1009.4
20260904112520 65 56 0.0 0.0 0.00 0.00 0.00 97 1009.4
20260904112023 65 56 0.0 0.0 0.00 0.00 0.00 97 1009.3
20260904111524 64 61 0.0 0.0 0.00 0.00 0.00 97 1009.3
20260904111027 64 49 0.0 0.0 0.00 0.00 0.00 97 1009.3
20260904110520 64 39 0.0 0.0 0.00 0.00 0.00 97 1009.2
20260904110018 64 180 0.0 0.0 0.00 0.01 0.00 97 1009.3
20260904105518 64 180 0.0 1.0 0.00 0.01 0.00 97 1009.2
20260904105017 65 171 0.0 1.0 0.00 0.01 0.00 97 1009.2
20260904104515 65 76 0.0 4.0 0.00 0.01 0.00 97 1009.1
20260904104015 65 75 0.0 4.0 0.00 0.01 0.00 97 1009.0
20260904103514 65 69 1.0 4.0 0.00 0.01 0.00 97 1009.0
20260904103014 65 59 0.0 2.0 0.00 0.01 0.00 97 1009.0
20260904102514 65 336 0.0 0.0 0.00 0.01 0.00 97 1009.0
20260904102013 65 336 0.0 1.0 0.00 0.01 0.00 97 1008.9
20260904101513 65 336 0.0 1.0 0.00 0.01 0.00 97 1008.9
20260904101013 65 61 0.0 0.0 0.00 0.01 0.00 97 1008.9
20260904100512 65 61 0.0 0.0 0.00 0.01 0.00 97 1008.9
20260904100012 65 85 0.0 0.0 0.00 0.03 0.00 97 1008.8
20260904095516 66 85 0.0 0.0 0.00 0.03 0.00 97 1008.8
20260904095012 66 85 0.0 0.0 0.00 0.03 0.00 97 1008.8
20260904094510 66 85 0.0 0.0 0.00 0.03 0.00 97 1008.7
20260904094010 66 97 0.0 0.0 0.00 0.03 0.00 97 1008.8
20260904093512 66 97 0.0 0.0 0.00 0.03 0.00 97 1008.9
20260904093111 66 97 0.0 1.0 0.00 0.03 0.00 97 1008.8
20260904092514 66 97 0.0 1.0 0.00 0.03 0.00 97 1008.8
20260904092010 66 96 0.0 0.0 0.00 0.03 0.00 97 1008.8
20260904091510 66 96 0.0 0.0 0.00 0.03 0.00 97 1008.8
20260904091011 66 96 0.0 0.0 0.00 0.03 0.00 97 1008.7
20260904090510 66 96 0.0 0.0 0.00 0.03 0.00 97 1008.7
20260904090009 66 96 0.0 2.0 0.00 0.04 0.00 97 1008.6
20260904085509 66 50 0.0 2.0 0.00 0.04 0.00 97 1008.6
20260904085009 66 94 0.0 0.0 0.00 0.04 0.00 97 1008.7
20260904084507 66 94 0.0 0.0 0.00 0.04 0.00 97 1008.7
20260904084006 66 94 0.0 0.0 0.00 0.04 0.00 97 1008.8
20260904083506 66 94 0.0 0.0 0.00 0.04 0.00 97 1008.7
20260904083009 66 94 0.0 0.0 0.00 0.04 0.00 97 1008.8
20260904082506 66 94 0.0 0.0 0.00 0.04 0.00 97 1008.9
20260904082004 66 94 0.0 0.0 0.00 0.04 0.00 97 1008.9
20260904081513 66 94 0.0 0.0 0.00 0.04 0.00 97 1009.0
20260904081005 66 94 0.0 0.0 0.00 0.04 0.00 97 1009.0
20260904080504 66 94 0.0 0.0 0.00 0.04 0.00 97 1009.1
20260904080004 66 94 0.0 0.0 0.00 0.04 0.00 97 1009.1
20260904075503 66 94 0.0 0.0 0.00 0.04 0.00 97 1009.0
20260904075004 66 94 0.0 0.0 0.00 0.04 0.00 97 1009.0
20260904074504 66 94 0.0 0.0 0.00 0.04 0.00 97 1009.0
20260904074003 66 94 0.0 0.0 0.00 0.04 0.00 97 1009.0
20260904073503 66 94 0.0 0.0 0.00 0.04 0.00 97 1008.9
20260904073001 66 94 0.0 0.0 0.00 0.04 0.00 97 1009.0
20260904072502 66 94 0.0 0.0 0.00 0.04 0.00 97 1009.1
20260904072101 66 94 0.0 0.0 0.00 0.04 0.00 97 1009.2
20260904071601 66 94 0.0 0.0 0.00 0.04 0.00 97 1009.2
20260904071100 66 94 0.0 0.0 0.00 0.04 0.00 97 1009.2
20260904070600 67 94 0.0 0.0 0.00 0.04 0.00 97 1009.2
20260904065559 67 94 0.0 0.0 0.00 0.04 0.00 97 1009.1
20260904065100 67 94 0.0 0.0 0.00 0.04 0.00 97 1009.1
20260904064619 67 94 0.0 0.0 0.00 0.04 0.00 97 1009.3
20260904064100 67 94 0.0 0.0 0.00 0.04 0.00 97 1009.3
20260904063557 67 94 0.0 0.0 0.00 0.04 0.00 97 1009.4
20260904063057 67 94 0.0 0.0 0.00 0.04 0.00 97 1009.3
20260904062559 67 94 0.0 0.0 0.00 0.04 0.00 97 1009.2
20260904062056 67 94 0.0 0.0 0.00 0.04 0.00 97 1009.3
20260904061555 67 94 0.0 0.0 0.00 0.04 0.00 97 1009.4
20260904061058 67 94 0.0 0.0 0.00 0.04 0.00 97 1009.5
20260904060554 67 94 0.0 0.0 0.00 0.04 0.00 97 1009.7
20260904060053 67 94 0.0 0.0 0.00 0.04 0.00 97 1009.8
20260904055553 67 94 0.0 0.0 0.00 0.04 0.00 97 1009.8
20260904055054 67 94 0.0 0.0 0.00 0.04 0.00 97 1009.9
20260904054551 67 94 0.0 0.0 0.00 0.04 0.00 97 1010.0
20260904054054 67 94 0.0 0.0 0.00 0.04 0.00 97 1010.0
20260904053550 67 94 0.0 0.0 0.00 0.04 0.00 97 1010.0
20260904053054 67 94 0.0 0.0 0.00 0.04 0.00 97 1010.1
20260904052553 67 94 0.0 0.0 0.00 0.04 0.00 97 1010.0
20260904052049 67 94 0.0 0.0 0.00 0.04 0.00 97 1010.1
20260904051549 67 94 0.0 0.0 0.00 0.04 0.00 97 1010.2
20260904051048 67 94 0.0 0.0 0.00 0.04 0.00 97 1010.3
20260904050548 67 92 0.0 0.0 0.00 0.04 0.00 97 1010.3
20260904050057 67 92 0.0 0.0 0.00 0.04 0.00 97 1010.2
20260904045548 67 92 0.0 0.0 0.00 0.04 0.00 97 1010.1
20260904045047 67 92 0.0 0.0 0.00 0.04 0.00 96 1010.3
20260904044555 67 92 0.0 0.0 0.00 0.04 0.00 96 1010.2
20260904044047 67 92 0.0 0.0 0.00 0.04 0.00 96 1010.3